C/2007 B2 ( Skiff )

Japanese version
Home page
Updated on June 21, 2009

---------------------------------------------------------------------

* Profile

Discovery Date January 23, 2007
Magnitude 18.1 mag
Discoverer B. A. Skiff (Lowell Observatory)

* Pictures

* Orbital Elements

Epoch 2008 Aug. 2.0 TT = JDT 2454680.5
T 2008 Aug. 20.87563 TT                                 MPC
q   2.9748705            (2000.0)            P               Q
z  +0.0013999      Peri.  206.00407     -0.76886089     +0.62834331
 +/-0.0000051      Node    14.86983     -0.47596226     -0.43867253
e   0.9958355      Incl.   27.49615     -0.42698110     -0.64245707

* Finding Charts

* Magnitudes Graph

        m1 = 6.7 + 5 log d + 10.0 log r

---------------------------------------------------------------------

The orbital elements are published on M.P.E.C. 2007-V49.
The charts are made with StellaNavigator Ver.2.0 for Windows (AstroArts / ASCII).
The magnitudes graphs are made with Comet for Windows.

---------------------------------------------------------------------

Copyright(C) Seiichi Yoshida (comet@aerith.net). All rights reserved.